Flag for Zimbabwe Weather past 2 weeks in Harare, Zimbabwe

Now
57 °F

Clear.


Feels Like: 57 °F
Forecast: 49 / 78 °F
Wind: No wind

Location: Harare Kutsaga Airport


UV Index: 7 (High)

Visibility: 10 mi


Pressure: 30.30 "Hg

Humidity: 94%

Dew point: 55 °F

Location of HarareLocation

Historic Weather in Harare

°F

Harare temperature yesterday

Maximum temperature yesterday: 77 °F (at 3:00 PM)
Minimum temperature yesterday: 52 °F (at 2:00 AM)
Average temperature yesterday: 66 °F

Past Weeks' High & Low Weather Summary

 TemperatureHumidityPressure
High79 °F (Apr 5, 12:00 PM)100% (Apr 6, 8:00 AM)30.39 "Hg (Apr 6, 8:00 AM)
Low52 °F (Apr 8, 4:00 AM)38% (Apr 13, 11:00 AM)30.01 "Hg (Apr 18, 9:00 AM)
Average64 °F77%30.27 "Hg
* Reported Apr 5 2:00 AM — Apr 20 2:00 AM, Harare, Weather by CustomWeather, © 2014

Note: Actual official high and low records may vary slightly from our data, if they occured in-between our weather recording intervals... More about our weather records

Advertising

Historic Weather Conditions — Data for Previous 24 hours

 ConditionsComfort  
Time TempWeatherWind HumidityBarometerVisibility
2:00 AM
Apr 20
57 °FClear.No wind94%30.30 "Hg10 mi
1:00 AM57 °FClear.5 mph94%30.33 "Hg10 mi
12:00 AM59 °FClear.8 mph94%30.36 "Hg10 mi
11:00 PM
Apr 19
63 °FClear.9 mph83%30.36 "Hg10 mi
10:00 PM66 °FClear.9 mph68%30.36 "Hg10 mi
9:00 PM63 °FClear.5 mph77%30.36 "Hg10 mi
8:00 PM64 °FPassing clouds.3 mph73%30.33 "HgN/A
7:00 PM64 °FClear.5 mph68%30.30 "Hg10 mi
6:00 PM68 °FClear.6 mph60%30.30 "Hg10 mi
5:00 PM75 °FPassing clouds.9 mph44%30.30 "HgN/A
4:00 PM73 °FPassing clouds.3 mph50%30.27 "HgN/A
3:00 PM77 °FSunny.5 mph42%30.27 "Hg10 mi
2:00 PM75 °FPassing clouds.6 mph44%30.30 "HgN/A
1:00 PM73 °FScattered clouds.5 mph47%30.30 "HgN/A
12:00 PM73 °FPartly sunny.8 mph50%30.33 "HgN/A
11:00 AM70 °FPartly sunny.7 mph57%30.36 "HgN/A
10:00 AM70 °FPartly sunny.8 mph60%30.39 "HgN/A
9:00 AM68 °FScattered clouds.7 mph69%30.39 "HgN/A
8:00 AM61 °FPassing clouds.6 mph88%30.36 "HgN/A
7:00 AM55 °FSunny.2 mph100%30.33 "Hg10 mi
6:00 AM52 °FPassing clouds.3 mph100%30.30 "HgN/A
Weather by CustomWeather, © 2014

See weather overview